Rugby, ND

10:10 AM CST on November 20, 2017 (GMT -0600)
Rugby Municipal

Weather History for KRUG - February, 2013

Change the Weather History Date:

Saturday, February 23, 2013

  Actual Average Record
Temperature  
Mean Temperature 12 °F -  
Max Temperature 23 °F 27 °F 51 °F (1958)
Min Temperature 0 °F 7 °F -24 °F (1993)
Degree Days  
Heating Degree Days 54    
Moisture  
Dew Point 9 °F    
Average Humidity 87    
Maximum Humidity 93    
Minimum Humidity 74    
Precipitation  
Precipitation 0.00 in - - ()
Sea Level Pressure  
Sea Level Pressure 29.75 in    
Wind  
Wind Speed 10 mph (SE)    
Max Wind Speed 16 mph    
Max Gust Speed -    
Visibility 10 miles    
Events      
Averages and records for this station are not official NWS values.
T = Trace of Precipitation, MM = Missing Value Source: NWS Daily Summary

Daily Weather History Graph

Daily Weather History Graph

Search for Another Location

Airport or City:

Trip Planner

Search our weather history database for the weather conditions in past years. The results will help you decide how hot, cold, wet, or windy it might be!

Date:

Astronomy

Feb. 23, 2013 Rise Set
Actual Time 7:32 AM CST 6:15 PM CST
Civil Twilight 7:00 AM CST 6:46 PM CST
Nautical Twilight 6:24 AM CST 7:23 PM CST
Astronomical Twilight 5:48 AM CST 7:59 PM CST
Moon 4:22 PM CST (2/23) 6:02 AM CST (2/23)
Length of Visible Light 11h 46m
Length of Day
10h 42m
Waxing Gibbous, 95% of the Moon is Illuminated
Feb 23
Waxing Gibbous
Feb 25
Full
Mar 4
Last Quarter
Mar 11
New
Mar 19
First Quarter

Hourly Weather History & Observations

Time (CST) Temp. Windchill Dew Point Humidity Pressure Visibility Wind Dir Wind Speed Gust Speed Precip Events Conditions
12:15 AM 6.8 °F -7.8 °F 1.4 °F 79% 29.80 in 10.0 mi SE 10.4 mph - N/A   Clear
12:35 AM 5.0 °F -9.1 °F 1.4 °F 85% 29.80 in 10.0 mi SE 9.2 mph - N/A   Clear
12:55 AM 5.0 °F -10.0 °F 1.4 °F 85% 29.79 in 10.0 mi SE 10.4 mph - N/A   Clear
1:15 AM 6.8 °F -7.8 °F 3.2 °F 85% 29.79 in 10.0 mi SE 10.4 mph - N/A   Clear
1:35 AM 8.6 °F -5.5 °F 5.0 °F 85% 29.78 in 10.0 mi SSE 10.4 mph - N/A   Clear
1:55 AM 6.8 °F -6.9 °F 1.4 °F 79% 29.78 in 10.0 mi SE 9.2 mph - N/A   Clear
2:15 AM 3.2 °F -11.3 °F -0.4 °F 85% 29.77 in 10.0 mi SE 9.2 mph - N/A   Clear
2:35 AM 1.4 °F -12.5 °F -0.4 °F 92% 29.77 in 10.0 mi ESE 8.1 mph - N/A   Clear
3:15 AM 1.4 °F -11.3 °F -0.4 °F 92% 29.77 in 10.0 mi SE 6.9 mph - N/A   Clear
3:35 AM -0.4 °F -15.7 °F -4.0 °F 85% 29.75 in 10.0 mi SE 9.2 mph - N/A   Clear
3:55 AM -0.4 °F -12.0 °F -2.2 °F 92% 29.75 in 10.0 mi ESE 5.8 mph - N/A   Clear
4:15 AM 1.4 °F -11.3 °F -2.2 °F 85% 29.75 in 10.0 mi SE 6.9 mph - N/A   Clear
4:35 AM -0.4 °F -12.0 °F -4.0 °F 85% 29.75 in 10.0 mi ESE 5.8 mph - N/A   Clear
4:55 AM -0.4 °F -14.7 °F -4.0 °F 85% 29.75 in 10.0 mi ESE 8.1 mph - N/A   Clear
5:15 AM -0.4 °F -14.7 °F -2.2 °F 92% 29.74 in 10.0 mi ESE 8.1 mph - N/A   Clear
5:35 AM -0.4 °F -15.7 °F -2.2 °F 92% 29.74 in 10.0 mi ESE 9.2 mph - N/A   Clear
5:55 AM 1.4 °F -16.1 °F -0.4 °F 92% 29.74 in 10.0 mi ESE 12.7 mph - N/A   Clear
6:15 AM 1.4 °F -16.1 °F -0.4 °F 92% 29.74 in 10.0 mi ESE 12.7 mph - N/A   Clear
6:35 AM -0.4 °F -14.7 °F -2.2 °F 92% 29.75 in 10.0 mi SE 8.1 mph - N/A   Clear
6:55 AM -0.4 °F -12.0 °F -2.2 °F 92% 29.75 in 10.0 mi ESE 5.8 mph - N/A   Clear
7:15 AM -0.4 °F -16.7 °F -2.2 °F 92% 29.74 in 10.0 mi ESE 10.4 mph - N/A   Clear
7:35 AM -0.4 °F -16.7 °F -2.2 °F 92% 29.74 in 10.0 mi ESE 10.4 mph - N/A   Clear
7:55 AM -0.4 °F -14.7 °F -2.2 °F 92% 29.74 in 10.0 mi SE 8.1 mph - N/A   Clear
8:15 AM -0.4 °F -15.7 °F -2.2 °F 92% 29.74 in 10.0 mi SE 9.2 mph - N/A   Clear
8:35 AM 1.4 °F -12.5 °F -0.4 °F 92% 29.73 in 10.0 mi SE 8.1 mph - N/A   Clear
8:55 AM 5.0 °F -6.9 °F 1.4 °F 85% 29.73 in 10.0 mi SE 6.9 mph - N/A   Clear
9:15 AM 8.6 °F -3.7 °F 6.8 °F 92% 29.73 in 10.0 mi SSE 8.1 mph - N/A   Clear
9:35 AM 10.4 °F -0.4 °F 8.6 °F 92% 29.73 in 10.0 mi SE 6.9 mph - N/A   Clear
9:55 AM 14.0 °F 2.0 °F 10.4 °F 86% 29.73 in 10.0 mi SE 9.2 mph - N/A   Clear
10:15 AM 12.2 °F 2.9 °F 8.6 °F 85% 29.74 in 10.0 mi East 5.8 mph - N/A   Clear
10:35 AM 10.4 °F -4.8 °F 6.8 °F 85% 29.73 in 10.0 mi ESE 12.7 mph - N/A   Clear
10:55 AM 12.2 °F -0.2 °F 8.6 °F 85% 29.72 in 10.0 mi ESE 9.2 mph - N/A   Clear
11:15 AM 15.8 °F 3.4 °F 12.2 °F 86% 29.73 in 10.0 mi SE 10.4 mph - N/A   Clear
11:35 AM 17.6 °F 5.7 °F 14.0 °F 86% 29.72 in 10.0 mi SE 10.4 mph - N/A   Clear
11:55 AM 17.6 °F 5.7 °F 14.0 °F 86% 29.72 in 10.0 mi SE 10.4 mph - N/A   Clear
12:15 PM 17.6 °F 6.4 °F 14.0 °F 86% 29.72 in 10.0 mi SE 9.2 mph - N/A   Clear
12:35 PM 19.4 °F 7.2 °F 14.0 °F 80% 29.72 in 10.0 mi SE 11.5 mph - N/A   Clear
12:55 PM 19.4 °F 9.5 °F 15.8 °F 86% 29.72 in 10.0 mi SE 8.1 mph - N/A   Clear
1:15 PM 23.0 °F 13.1 °F 15.8 °F 74% 29.72 in 10.0 mi SE 9.2 mph - N/A   Clear
1:35 PM 19.4 °F 8.6 °F 15.8 °F 86% 29.72 in 10.0 mi ESE 9.2 mph - N/A   Clear
1:55 PM 23.0 °F 14.7 °F 15.8 °F 74% 29.72 in 10.0 mi SE 6.9 mph - N/A   Clear
2:15 PM 23.0 °F 13.1 °F 15.8 °F 74% 29.72 in 10.0 mi SE 9.2 mph - N/A   Clear
2:35 PM 21.2 °F 10.1 °F 15.8 °F 80% 29.72 in 10.0 mi SE 10.4 mph - N/A   Clear
2:55 PM 23.0 °F 12.4 °F 17.6 °F 80% 29.71 in 10.0 mi SE 10.4 mph - N/A   Clear
3:15 PM 23.0 °F 11.7 °F 17.6 °F 80% 29.72 in 10.0 mi SE 11.5 mph - N/A   Clear
3:35 PM 23.0 °F 12.4 °F 17.6 °F 80% 29.72 in 10.0 mi SE 10.4 mph - N/A   Clear
3:55 PM 23.0 °F 11.7 °F 17.6 °F 80% 29.73 in 10.0 mi SE 11.5 mph - N/A   Unknown
4:15 PM 23.0 °F 11.1 °F 17.6 °F 80% 29.73 in 10.0 mi SE 12.7 mph - N/A   Clear
4:35 PM 21.2 °F 7.8 °F 17.6 °F 86% 29.72 in 10.0 mi SE 15.0 mph - N/A   Clear
4:55 PM 21.2 °F 7.3 °F 17.6 °F 86% 29.72 in 10.0 mi SE 16.1 mph - N/A   Clear
5:15 PM 21.2 °F 7.3 °F 17.6 °F 86% 29.73 in 10.0 mi ESE 16.1 mph - N/A   Clear
5:35 PM 19.4 °F 5.0 °F 15.8 °F 86% 29.73 in 10.0 mi SE 16.1 mph - N/A   Clear
5:55 PM 19.4 °F 6.6 °F 15.8 °F 86% 29.74 in 10.0 mi SE 12.7 mph - N/A   Clear
6:15 PM 17.6 °F 3.7 °F 15.8 °F 93% 29.74 in 10.0 mi SE 13.8 mph - N/A   Clear
6:35 PM 17.6 °F 5.7 °F 14.0 °F 86% 29.75 in 10.0 mi SE 10.4 mph - N/A   Clear
6:55 PM 17.6 °F 5.0 °F 14.0 °F 86% 29.76 in 10.0 mi SE 11.5 mph - N/A   Clear
7:15 PM 17.6 °F 5.0 °F 14.0 °F 86% 29.76 in 10.0 mi SE 11.5 mph - N/A   Clear
7:35 PM 15.8 °F 3.4 °F 12.2 °F 86% 29.77 in 10.0 mi ESE 10.4 mph - N/A   Clear
7:55 PM 15.8 °F 2.7 °F 14.0 °F 93% 29.78 in 10.0 mi SE 11.5 mph - N/A   Clear
8:15 PM 15.8 °F 4.2 °F 14.0 °F 93% 29.78 in 10.0 mi SE 9.2 mph - N/A   Clear
8:35 PM 17.6 °F 5.7 °F 14.0 °F 86% 29.78 in 10.0 mi SE 10.4 mph - N/A   Clear
8:55 PM 17.6 °F 6.4 °F 14.0 °F 86% 29.79 in 10.0 mi SE 9.2 mph - N/A   Clear
9:35 PM 17.6 °F 5.0 °F 15.8 °F 93% 29.79 in 10.0 mi SSE 11.5 mph - N/A   Clear
9:55 PM 19.4 °F 6.0 °F 15.8 °F 86% 29.79 in 10.0 mi SSE 13.8 mph - N/A   Clear
10:15 PM 17.6 °F 5.0 °F 15.8 °F 93% 29.79 in 10.0 mi SSE 11.5 mph - N/A   Clear
10:35 PM 17.6 °F 5.7 °F 15.8 °F 93% 29.80 in 10.0 mi SSE 10.4 mph - N/A   Clear
10:55 PM 17.6 °F 7.3 °F 15.8 °F 93% 29.80 in 10.0 mi SSE 8.1 mph - N/A   Clear
11:15 PM 17.6 °F 7.3 °F 15.8 °F 93% 29.79 in 10.0 mi SSE 8.1 mph - N/A   Clear
11:35 PM 17.6 °F 5.7 °F 14.0 °F 86% 29.79 in 10.0 mi SE 10.4 mph - N/A   Clear
11:55 PM 17.6 °F 5.7 °F 14.0 °F 86% 29.80 in 10.0 mi SE 10.4 mph - N/A   Clear